Hourly Weather Roundup
Issued by NWS Central Illinois

Current Version | Previous Version | Text Only | Print | Product List | Glossary On
Versions: 1 2 3 4 5 6 7 8 9 10 11 12 13 14 15 16 17 18 19 20 21 22 23 24 25 26 27 28 29 30 31 32 33 34 35 36 37 38 39 40 41 42 43 44 45 46 47 48 49 50
000
NZUS43 KILX 300310
HWRILX

AREA WEATHER ROUNDUP
NATIONAL WEATHER SERVICE, LINCOLN IL
900 PM CST THU JAN 29 2015


CITY           SKY/WX    TMP DP  RH WIND       PRES   REMARKS
BLOOMINGTON    MOCLDY    33  28  82 NW20G25   30.30R WCI  21
CHAMPAIGN      CLOUDY    34  29  82 W14       30.28R WCI  25
DECATUR        CLOUDY    34  27  75 NW18G29   30.33R WCI  23
FLORA          CLOUDY    34  30  85 NW16G22   30.35R WCI  24
GALESBURG      CLOUDY    32  25  74 NW20G25   30.35R WCI  20
JACKSONVILLE   CLOUDY    36  26  68 NW20G26   30.38R WCI  25
LACON          CLOUDY    33  25  72 NW13      30.32R WCI  24
LAWRENCEVILLE  CLOUDY    36  32  85 NW15      30.31R WCI  27
LITCHFIELD     CLOUDY    33  26  76 NW20      30.37R WCI  21
$$


CITY           SKY/WX    TMP DP  RH WIND       PRES   REMARKS
LINCOLN        CLOUDY    35  26  71 NW12G20   30.36R WCI  27
MACOMB         CLOUDY    33  26  74 NW13G20   30.40R WCI  24
MATTOON        CLOUDY    34  29  82 NW17      30.30R WCI  23
MT CARMEL AP   CLOUDY    37  32  81 NW15      30.31R WCI  28
OLNEY-NOBLE AP CLOUDY    34  32  93 W14G21    30.34R WCI  24
PARIS          CLOUDY    34  32  94 W12       30.28R WCI  25
PEORIA         CLOUDY    35  24  64 NW14G21   30.34R WCI  26
PONTIAC        CLOUDY    35  31  85 NW14G23   30.28R WCI  25
RANTOUL        CLOUDY    35  31  83 NW13      30.27R WCI  27
ROBINSON       CLOUDY    35  32  91 NW12      30.31R WCI  26
SPRINGFIELD    CLOUDY    35  26  69 NW17      30.36R WCI  25
TAYLORVILLE    CLOUDY    32  27  80 NW13      30.35R WCI  22
$$

...REGIONAL REPORTS...


CITY           SKY/WX    TMP DP  RH WIND       PRES   REMARKS
CHICAGO O`HARE CLOUDY    34  19  54 NW15      30.22R WCI  24
KANKAKEE       CLOUDY    34  26  71 NW12      30.25R WCI  26
MOLINE         CLOUDY    32  21  64 NW17G26   30.36R WCI  21
MOUNT VERNON   CLOUDY    36  27  69 NW6       30.37R WCI  31
PITTSFIELD     CLOUDY    35  25  67 NW16G23   30.41R WCI  25
QUINCY         CLOUDY    33  23  66 N18       30.40S WCI  22
ROCKFORD       CLOUDY    33  19  56 N16G23    30.29R WCI  23
$$


CITY           SKY/WX    TMP DP  RH WIND       PRES   REMARKS
BURLINGTON     CLOUDY    32  23  69 NW16G26   30.40R WCI  21
CEDAR RAPIDS   CLOUDY    27  19  72 NW18G25   30.40R WCI  14
DES MOINES     PTCLDY    30  20  66 N13       30.48R WCI  20
KIRKSVILLE     CLOUDY    32  22  66 NW12G21   30.45R WCI  23
OTTUMWA        CLOUDY    28  20  71 NW21      30.45R WCI  15
ST LOUIS       CLOUDY    37  26  64 NW14      30.40R WCI  28
$$


CITY           SKY/WX    TMP DP  RH WIND       PRES   REMARKS
TERRE HAUTE    CLOUDY    35  30  82 NW13      30.27R WCI  26
EVANSVILLE     CLOUDY    38  32  79 NW8G20    30.33R WCI  32
INDIANAPOLIS   CLOUDY    31  28  89 NW13      30.21R WCI  21
LAFAYETTE      CLOUDY    33  26  75 NW10      30.22R WCI  25
MADISON        FLURRIES  29  19  66 N10       30.28R WCI  20
MILWAUKEE      FLURRIES  31  17  56 N20G26    30.23R WCI  19
$$





USA.gov is the U.S. government's official web portal to all federal, state and local government web resources and services.